Vorticity
15 12 16 6 17 18 8 23 6 6 12 12 14 14 13 12 13 14 12 7 7 7 8 9 9 9 11 7 6 9 7 5 6 6 9 7 8 8 9 6 6 4 8 5 2
12 14 17 10 22 15 11 16 27 12 4 13 12 13 12 12 12 15 14 9 7 8 9 9 8 9 10 11 10 8 10 13 5 9 9 7 8 7 9 8 5 5 7 5 4
13 16 17 23 16 11 10 12 27 -16 14 4 10 15 13 13 11 12 10 7 7 7 8 7 9 7 6 8 8 10 6 12 13 8 10 6 8 8 8 6 4 4 6 4 4
7 9 15 11 14 13 15 10 11 5 22 29 11 9 11 11 12 11 10 9 8 7 6 6 8 10 11 10 12 10 11 9 11 12 7 7 8 9 7 7 4 3 4 5 5
0 8 14 13 11 12 13 10 14 5 1 17 12 10 12 12 13 13 12 9 8 8 8 8 9 10 10 10 10 9 10 11 6 11 7 7 9 11 8 6 4 2 2 4 4
7 4 6 16 13 18 17 18 7 13 5 25 9 11 10 10 13 13 14 11 8 7 7 7 7 8 8 8 8 9 9 11 14 8 9 6 7 10 9 6 4 4 4 6 3
22 3 3 11 16 14 8 10 12 14 25 27 18 13 11 7 12 13 14 12 9 7 6 6 6 6 9 8 9 8 9 8 12 8 6 9 3 4 7 6 6 2 3 4 6
20 16 6 5 15 13 12 3 5 9 14 8 21 9 9 13 13 14 14 12 9 7 5 3 3 4 6 9 9 9 8 7 9 11 7 1 15 10 4 4 3 5 4 3 1
19 20 5 3 2 17 15 10 9 6 12 12 12 9 9 10 13 15 12 13 11 7 6 4 3 5 7 8 7 8 9 11 9 9 7 5 9 7 7 4 1 1 1 5 10
16 18 17 6 4 7 16 17 10 11 4 -1 23 15 9 10 13 12 12 12 12 10 7 7 6 7 9 10 10 16 15 12 13 9 10 7 6 11 9 5 6 1 1 3 2
14 13 11 23 8 0 8 17 14 8 10 8 14 14 10 7 9 13 11 10 10 9 8 7 4 7 16 11 12 11 11 11 11 11 13 10 13 9 7 10 6 10 3 2 3
18 13 8 12 22 10 0 17 18 8 12 7 19 21 8 7 8 12 11 10 9 9 8 5 8 11 8 9 9 9 9 12 12 10 5 13 13 13 10 9 7 -3 4 6 8
19 16 7 16 22 16 8 13 16 9 7 8 5 16 16 8 6 9 11 10 8 8 7 5 3 5 9 8 8 9 8 11 11 12 11 10 13 13 11 7 5 5 4 5 6
9 20 12 8 11 16 5 13 18 12 4 6 6 12 22 11 7 8 11 8 8 9 7 6 6 4 7 9 9 7 8 9 9 10 8 8 12 12 11 9 6 5 3 3 4
7 8 22 8 4 4 10 8 12 21 1 9 13 8 12 18 9 8 4 8 9 8 6 7 8 8 6 8 8 12 7 5 8 7 7 5 8 12 10 8 6 7 7 7 5
10 6 5 18 15 5 7 14 4 20 13 -5 14 8 13 20 16 4 5 6 12 6 8 6 8 8 10 5 4 3 8 7 6 6 8 7 7 10 12 10 11 9 9 9 8
15 10 5 6 13 24 6 4 13 8 15 10 4 30 1 10 21 15 4 6 5 9 10 10 10 10 6 6 4 5 3 5 6 5 6 8 9 7 12 15 15 12 9 7 8
16 14 11 10 5 9 21 14 6 12 5 11 5 8 8 17 7 24 23 3 4 5 4 8 5 10 10 6 6 7 9 3 5 5 7 11 10 11 13 15 15 13 11 10 9
12 12 15 12 5 6 15 14 19 6 6 11 13 6 10 3 21 8 17 29 -2 11 6 6 1 7 9 4 6 4 4 13 7 4 7 8 10 15 18 11 9 12 11 8 6
8 12 14 9 12 7 6 14 11 17 13 5 7 12 10 21 -1 -12 -5 7 23 25 8 8 2 9 6 6 8 5 7 9 6 3 3 5 9 11 11 12 11 12 15 9 7
18 14 11 7 21 8 7 4 8 12 13 17 8 5 13 4 10 24 26 18 -2 2 24 35 12 6 5 5 9 6 8 4 7 8 3 9 8 12 13 13 10 14 13 15 11
13 18 12 12 8 5 12 9 9 13 12 13 14 15 3 7 9 -1 7 3 31 2 16 8 34 22 14 5 11 4 3 8 8 5 9 7 8 5 9 8 16 14 4 13 11
13 17 17 18 3 16 12 8 6 3 13 13 13 14 14 4 7 17 1 9 2 25 8 -3 5 12 33 18 5 4 9 9 8 12 6 11 3 10 6 4 8 10 6 8 10
17 14 10 23 10 5 18 15 10 4 2 11 11 13 13 15 10 5 11 12 -0 3 14 -0 29 11 -1 21 28 11 8 8 9 1 14 -1 2 1 4 4 7 12 8 8 9
14 14 12 10 18 11 18 17 14 11 8 8 10 9 10 13 12 24 7 10 12 18 -10 13 11 4 2 7 6 20 24 15 11 12 4 13 12 9 10 11 10 8 6 9 -1
11 16 18 1 15 14 10 18 16 12 8 2 6 10 9 6 8 6 34 5 13 10 7 -4 16 11 2 8 8 -1 9 20 15 14 7 6 3 4 15 12 9 6 7 7 7
9 12 13 6 13 18 9 12 15 13 11 8 5 5 10 10 7 6 5 12 14 12 11 -1 24 7 22 9 9 10 3 -5 2 13 20 16 15 13 7 3 2 5 6 7 12
Height
5657 5654 5650 5648 5647 5646 5646 5650 5651 5656 5659 5662 5666 5672 5674 5678 5684 5691 5699 5704 5707 5713 5718 5722 5726 5730 5735 5738 5742 5746 5748 5752 5758 5762 5763 5764 5769 5771 5777 5782 5786 5787 5791 5792 5794
5655 5651 5648 5645 5643 5643 5643 5645 5647 5647 5653 5656 5660 5665 5667 5673 5678 5684 5692 5692 5701 5706 5711 5716 5720 5724 5728 5732 5735 5739 5743 5747 5752 5756 5757 5757 5763 5766 5773 5778 5780 5782 5785 5788 5790
5653 5648 5645 5641 5640 5640 5641 5641 5643 5645 5647 5650 5654 5659 5663 5668 5672 5676 5680 5685 5693 5698 5704 5709 5712 5717 5723 5725 5729 5733 5736 5740 5745 5750 5751 5750 5756 5762 5768 5772 5776 5778 5781 5783 5786
5652 5647 5643 5641 5638 5638 5639 5640 5641 5643 5644 5647 5647 5653 5658 5662 5668 5671 5676 5680 5688 5693 5698 5703 5709 5714 5717 5720 5724 5727 5729 5735 5738 5742 5745 5746 5751 5756 5762 5768 5770 5774 5777 5779 5781
5651 5646 5641 5639 5637 5636 5637 5638 5639 5641 5642 5642 5645 5648 5654 5658 5662 5665 5670 5676 5682 5688 5695 5699 5703 5707 5710 5712 5716 5718 5723 5727 5731 5735 5736 5740 5744 5752 5756 5760 5764 5769 5772 5775 5777
5650 5646 5641 5637 5636 5635 5636 5637 5638 5638 5640 5640 5642 5645 5649 5653 5656 5660 5666 5671 5678 5684 5689 5694 5698 5701 5702 5705 5707 5711 5716 5720 5724 5726 5729 5734 5738 5744 5751 5755 5759 5764 5767 5770 5773
5648 5644 5640 5638 5634 5634 5635 5636 5636 5637 5638 5637 5639 5642 5645 5649 5652 5656 5661 5666 5672 5678 5684 5688 5691 5693 5697 5699 5702 5706 5710 5713 5717 5720 5723 5727 5731 5735 5744 5750 5754 5759 5762 5765 5768
5645 5642 5640 5637 5635 5633 5634 5634 5635 5636 5635 5635 5637 5640 5644 5646 5649 5653 5657 5662 5667 5673 5676 5679 5683 5686 5690 5694 5697 5700 5703 5705 5710 5714 5716 5719 5724 5730 5737 5743 5749 5753 5757 5759 5763
5645 5640 5638 5637 5634 5632 5632 5632 5633 5634 5634 5635 5635 5638 5640 5644 5647 5650 5653 5658 5663 5668 5671 5674 5677 5681 5685 5688 5691 5693 5696 5701 5706 5708 5711 5714 5721 5725 5732 5737 5742 5747 5751 5754 5758
5645 5640 5637 5635 5633 5631 5630 5630 5631 5631 5632 5632 5634 5637 5639 5641 5643 5646 5649 5653 5658 5662 5666 5669 5671 5676 5679 5683 5687 5694 5696 5699 5702 5706 5708 5710 5715 5721 5726 5732 5735 5740 5744 5748 5752
5644 5640 5636 5634 5633 5631 5629 5628 5630 5631 5630 5631 5631 5632 5634 5637 5640 5643 5646 5649 5653 5656 5660 5664 5667 5671 5681 5682 5683 5686 5686 5689 5694 5698 5701 5704 5709 5714 5720 5725 5729 5734 5738 5742 5745
5644 5639 5635 5633 5629 5629 5627 5626 5626 5628 5629 5628 5628 5629 5631 5633 5635 5639 5643 5646 5649 5653 5657 5659 5662 5671 5671 5673 5676 5678 5680 5684 5688 5690 5693 5697 5701 5707 5711 5716 5721 5726 5730 5733 5736
5643 5638 5634 5630 5627 5626 5626 5625 5625 5626 5625 5626 5626 5625 5628 5630 5632 5635 5639 5642 5645 5648 5652 5656 5664 5663 5665 5667 5670 5673 5676 5680 5683 5685 5687 5690 5692 5697 5703 5708 5712 5718 5722 5725 5729
5642 5637 5634 5631 5628 5625 5625 5623 5622 5621 5622 5624 5624 5623 5625 5625 5628 5631 5634 5637 5639 5644 5647 5649 5652 5656 5658 5661 5664 5667 5671 5672 5675 5677 5679 5682 5685 5688 5694 5698 5702 5707 5711 5715 5719
5641 5636 5633 5629 5626 5625 5623 5620 5620 5620 5619 5620 5619 5619 5620 5621 5625 5627 5629 5631 5635 5638 5641 5646 5648 5651 5651 5658 5659 5662 5663 5665 5668 5669 5670 5673 5674 5679 5683 5687 5694 5699 5703 5708 5712
5640 5635 5631 5628 5625 5623 5620 5618 5617 5617 5615 5615 5614 5615 5615 5616 5619 5619 5622 5625 5628 5629 5633 5635 5639 5640 5647 5649 5651 5654 5655 5658 5660 5662 5659 5666 5667 5672 5676 5684 5689 5692 5696 5700 5704
5638 5633 5628 5625 5621 5618 5615 5613 5612 5609 5610 5610 5609 5609 5610 5611 5613 5614 5616 5618 5621 5624 5626 5629 5632 5635 5638 5640 5641 5645 5649 5651 5653 5651 5653 5661 5661 5665 5673 5678 5682 5685 5689 5692 5696
5635 5630 5626 5621 5618 5615 5612 5611 5610 5608 5605 5604 5604 5604 5604 5606 5607 5608 5611 5612 5614 5616 5619 5621 5624 5627 5632 5633 5639 5642 5646 5645 5645 5647 5651 5652 5646 5657 5667 5671 5675 5678 5682 5684 5688
5630 5626 5623 5619 5614 5610 5609 5605 5601 5601 5600 5598 5598 5598 5597 5598 5600 5601 5603 5605 5608 5609 5612 5613 5616 5620 5624 5627 5631 5632 5630 5643 5641 5639 5641 5642 5645 5653 5657 5661 5666 5670 5673 5677 5680
5626 5621 5618 5615 5611 5606 5603 5600 5597 5594 5592 5592 5591 5591 5591 5590 5592 5593 5593 5596 5598 5601 5603 5605 5608 5611 5614 5616 5619 5621 5631 5629 5629 5628 5632 5633 5637 5644 5649 5653 5657 5661 5664 5668 5671
5620 5615 5611 5607 5604 5602 5597 5593 5590 5586 5584 5583 5583 5582 5583 5583 5582 5583 5585 5587 5589 5592 5594 5597 5599 5602 5604 5606 5610 5613 5616 5619 5622 5623 5625 5629 5630 5635 5640 5645 5648 5652 5656 5660 5663
5613 5608 5604 5598 5596 5592 5588 5582 5579 5577 5575 5575 5574 5573 5573 5572 5572 5573 5574 5576 5580 5583 5585 5588 5588 5589 5594 5596 5600 5604 5607 5611 5611 5616 5618 5621 5623 5625 5632 5636 5640 5644 5647 5650 5654
5605 5599 5595 5591 5586 5582 5578 5574 5571 5568 5565 5566 5565 5564 5562 5563 5562 5563 5565 5567 5568 5571 5574 5577 5578 5579 5582 5586 5588 5591 5596 5600 5604 5607 5607 5611 5614 5621 5624 5627 5631 5634 5638 5641 5644
5597 5590 5586 5581 5576 5572 5567 5565 5560 5558 5556 5555 5555 5554 5552 5552 5552 5551 5553 5554 5557 5561 5563 5564 5566 5569 5574 5577 5580 5582 5587 5591 5594 5595 5600 5601 5608 5612 5616 5619 5621 5625 5628 5631 5634
5588 5582 5576 5571 5566 5562 5559 5554 5551 5548 5547 5544 5543 5541 5541 5541 5541 5540 5541 5542 5545 5548 5550 5550 5553 5558 5562 5564 5568 5571 5575 5579 5582 5587 5588 5597 5597 5602 5605 5608 5611 5615 5619 5622 5624
5577 5571 5565 5560 5554 5550 5545 5542 5540 5535 5535 5534 5531 5530 5529 5530 5528 5530 5528 5530 5531 5535 5537 5540 5542 5546 5549 5552 5557 5559 5563 5567 5571 5575 5577 5583 5587 5591 5595 5598 5601 5604 5607 5610 5612
5565 5560 5553 5549 5543 5537 5533 5528 5526 5524 5522 5519 5515 5515 5516 5515 5515 5516 5517 5517 5519 5521 5523 5526 5530 5535 5536 5540 5543 5545 5553 5557 5561 5564 5568 5571 5578 5581 5585 5588 5591 5594 5596 5599 5602